This is the latest recevied weather packets stored in our database for station/object KF7ROW. If no packets are shown the sender has not sent any weather packets the latest 1 day(s).
| Time | Temp. | Humidity | Pressure | Rain* | Wind** | Luminosity | Snow |
|---|---|---|---|---|---|---|---|
| 1778039329 | 13.33° C | 89% | 1021.2 hPa | 0 mm | - | 0 W/m² | - |
| 1778039026 | 13.33° C | 88% | 1021.1 hPa | 0 mm | - | 0 W/m² | - |
| 1778038723 | 13.33° C | 89% | 1021.1 hPa | 0 mm | - | 0 W/m² | - |
| 1778038117 | 13.33° C | 88% | 1021 hPa | 0 mm | - | 1 W/m² | - |
| 1778037511 | 13.33° C | 88% | 1020.9 hPa | 0 mm | - | 2 W/m² | - |
| 1778037208 | 13.89° C | 88% | 1021.1 hPa | 0 mm | - | 4 W/m² | - |
| 1778036905 | 13.89° C | 89% | 1020.8 hPa | 0 mm | - | 5 W/m² | - |
| 1778036300 | 13.89° C | 89% | 1020.7 hPa | 0 mm | - | 8 W/m² | - |
| 1778035996 | 13.89° C | 89% | 1020.7 hPa | 0 mm | - | 10 W/m² | - |
| 1778035390 | 13.89° C | 88% | 1020.7 hPa | 0 mm | - | 15 W/m² | - |
| 1778035086 | 13.89° C | 89% | 1020.6 hPa | 0 mm | - | 17 W/m² | - |
| 1778034480 | 13.89° C | 88% | 1020.6 hPa | 0 mm | - | 22 W/m² | - |
| 1778034178 | 13.89° C | 88% | 1020.8 hPa | 0 mm | - | 23 W/m² | - |
| 1778033876 | 13.89° C | 88% | 1020.6 hPa | 0 mm | - | 28 W/m² | - |
| 1778033269 | 13.89° C | 88% | 1020.5 hPa | 0 mm | - | 39 W/m² | - |
| 1778032664 | 13.89° C | 88% | 1020.6 hPa | 0 mm | - | 52 W/m² | - |
| 1778032362 | 13.89° C | 88% | 1020.5 hPa | 0 mm | - | 58 W/m² | - |
| 1778031755 | 13.89° C | 88% | 1020.7 hPa | 0 mm | - | 62 W/m² | - |
| 1778031452 | 13.89° C | 88% | 1020.5 hPa | 0 mm | - | 66 W/m² | - |
| 1778031149 | 13.89° C | 89% | 1020.6 hPa | 0 mm | - | 70 W/m² | - |
| 1778030543 | 13.89° C | 88% | 1020.7 hPa | 0 mm | - | 81 W/m² | - |
| 1778030240 | 13.89° C | 89% | 1020.6 hPa | 0 mm | - | 89 W/m² | - |
| 1778029936 | 13.89° C | 88% | 1020.7 hPa | 0 mm | - | 100 W/m² | - |
| 1778029635 | 13.89° C | 89% | 1020.5 hPa | 0 mm | - | 111 W/m² | - |
| 1778029029 | 13.89° C | 88% | 1020.7 hPa | 0 mm | - | 118 W/m² | - |
* Rain latest hour (hover to see other rain measurements)
** Current wind speed in m/s (hover to see current wind gust speed)